QPF
0.00 0.00 0.01 0.00 0.04 0.04 0.06 0.05 0.00 0.00 0.00 0.00 0.00 0.00 0.00 0.00 0.00 0.00 0.00 0.00 0.00 0.00 0.00 0.01 0.02 0.00 0.00 0.00 0.00 0.00 0.00 0.01 0.03 0.03 0.00 0.00 0.00 0.00 0.01 0.00 0.02 0.02 0.03 0.00 0.00 0.00 0.00 0.01 0.02
0.00 0.01 0.43 0.06 0.10 0.09 0.07 0.01 0.00 0.00 0.00 0.00 0.00 0.00 0.00 0.00 0.00 0.00 0.00 0.00 0.00 0.00 0.00 0.00 0.00 0.00 0.00 0.00 0.00 0.00 0.00 0.00 0.01 0.00 0.00 0.00 0.01 0.01 0.00 0.00 0.02 0.02 0.02 0.00 0.00 0.01 0.02 0.04 0.03
0.00 0.07 0.91 0.43 0.24 0.09 0.05 0.00 0.00 0.00 0.00 0.00 0.00 0.00 0.00 0.00 0.00 0.00 0.00 0.00 0.00 0.00 0.00 0.00 0.00 0.01 0.01 0.00 0.01 0.00 0.00 0.00 0.00 0.00 0.00 0.01 0.02 0.01 0.01 0.01 0.00 0.04 0.02 0.00 0.00 0.00 0.01 0.01 0.01
0.05 0.84 0.85 0.41 0.11 0.11 0.02 0.00 0.00 0.00 0.00 0.00 0.00 0.00 0.00 0.00 0.00 0.00 0.00 0.00 0.00 0.00 0.00 0.00 0.00 0.02 0.01 0.01 0.00 0.00 0.00 0.00 0.00 0.00 0.00 0.01 0.02 0.00 0.01 0.01 0.00 0.01 0.00 0.00 0.00 0.00 0.01 0.01 0.01
0.11 0.29 0.42 0.39 0.13 0.02 0.00 0.00 0.00 0.00 0.00 0.00 0.00 0.00 0.00 0.00 0.00 0.00 0.00 0.00 0.00 0.00 0.00 0.00 0.00 0.00 0.00 0.00 0.00 0.00 0.00 0.00 0.00 0.00 0.00 0.00 0.00 0.01 0.00 0.00 0.00 0.00 0.00 0.00 0.00 0.00 0.01 0.02 0.02
0.15 0.29 0.50 0.17 0.04 0.00 0.00 0.00 0.00 0.00 0.00 0.00 0.00 0.00 0.00 0.00 0.00 0.00 0.00 0.00 0.00 0.00 0.00 0.00 0.00 0.00 0.00 0.00 0.00 0.00 0.00 0.00 0.01 0.03 0.01 0.00 0.01 0.00 0.00 0.00 0.00 0.00 0.00 0.00 0.00 0.00 0.01 0.02 0.01
0.17 0.22 0.21 0.09 0.04 0.04 0.01 0.00 0.00 0.00 0.00 0.00 0.00 0.00 0.00 0.00 0.00 0.00 0.00 0.00 0.00 0.00 0.00 0.00 0.00 0.00 0.00 0.00 0.00 0.00 0.00 0.01 0.01 0.02 0.00 0.00 0.00 0.00 0.00 0.00 0.00 0.00 0.00 0.00 0.00 0.00 0.00 0.00 0.00
0.36 0.24 0.62 0.24 0.06 0.12 0.04 0.00 0.00 0.00 0.00 0.00 0.00 0.00 0.00 0.00 0.00 0.00 0.00 0.00 0.00 0.00 0.00 0.00 0.00 0.00 0.00 0.00 0.00 0.00 0.00 0.00 0.00 0.00 0.00 0.00 0.01 0.00 0.00 0.00 0.00 0.00 0.00 0.00 0.00 0.00 0.00 0.00 0.00
0.04 0.18 0.42 0.21 0.05 0.19 0.18 0.01 0.02 0.02 0.00 0.00 0.00 0.00 0.00 0.00 0.00 0.00 0.01 0.01 0.00 0.00 0.01 0.00 0.00 0.00 0.00 0.00 0.00 0.00 0.01 0.04 0.15 0.02 0.00 0.00 0.00 0.00 0.00 0.00 0.00 0.00 0.00 0.00 0.00 0.00 0.00 0.00 0.00
0.01 0.01 0.13 0.14 0.16 0.06 0.09 0.03 0.01 0.09 0.01 0.02 0.00 0.00 0.00 0.00 0.00 0.00 0.00 0.00 0.00 0.01 0.00 0.00 0.00 0.00 0.00 0.00 0.00 0.01 0.00 0.03 0.06 0.01 0.00 0.00 0.00 0.00 0.00 0.00 0.00 0.00 0.00 0.00 0.00 0.00 0.00 0.00 0.00
0.00 0.00 0.03 0.06 0.10 0.08 0.07 0.10 0.02 0.03 0.13 0.02 0.00 0.00 0.00 0.00 0.00 0.00 0.00 0.00 0.00 0.00 0.01 0.00 0.00 0.00 0.00 0.00 0.00 0.01 0.00 0.00 0.00 0.00 0.00 0.00 0.00 0.00 0.02 0.00 0.00 0.00 0.00 0.00 0.00 0.00 0.00 0.00 0.01
0.00 0.00 0.06 0.07 0.03 0.06 0.04 0.04 0.06 0.05 0.06 0.00 0.00 0.00 0.00 0.00 0.00 0.00 0.00 0.00 0.00 0.00 0.00 0.01 0.00 0.02 0.02 0.05 0.00 0.00 0.02 0.01 0.00 0.01 0.00 0.00 0.00 0.00 0.00 0.00 0.01 0.01 0.00 0.00 0.00 0.00 0.00 0.00 0.00
0.00 0.00 0.04 0.05 0.02 0.03 0.00 0.03 0.03 0.02 0.01 0.00 0.00 0.00 0.00 0.00 0.00 0.00 0.00 0.00 0.00 0.00 0.00 0.02 0.01 0.03 0.00 0.01 0.00 0.00 0.04 0.04 0.00 0.01 0.00 0.02 0.00 0.00 0.00 0.00 0.00 0.00 0.01 0.00 0.00 0.00 0.00 0.00 0.00
0.00 0.00 0.14 0.11 0.11 0.04 0.01 0.03 0.01 0.01 0.00 0.00 0.00 0.00 0.00 0.00 0.00 0.00 0.00 0.00 0.00 0.00 0.00 0.00 0.00 0.00 0.00 0.00 0.00 0.00 0.01 0.00 0.01 0.00 0.00 0.00 0.00 0.00 0.00 0.00 0.00 0.02 0.01 0.00 0.00 0.00 0.00 0.00 0.00
0.00 0.00 0.17 0.17 0.16 0.05 0.02 0.06 0.04 0.04 0.01 0.00 0.00 0.00 0.00 0.00 0.00 0.00 0.00 0.00 0.00 0.00 0.00 0.00 0.00 0.00 0.00 0.00 0.00 0.00 0.01 0.00 0.00 0.05 0.00 0.00 0.00 0.00 0.00 0.00 0.00 0.00 0.00 0.00 0.00 0.00 0.00 0.00 0.00
0.00 0.00 0.09 0.30 0.13 0.04 0.01 0.01 0.08 0.14 0.06 0.02 0.00 0.00 0.00 0.00 0.00 0.00 0.00 0.00 0.00 0.00 0.01 0.00 0.00 0.00 0.00 0.00 0.01 0.02 0.02 0.04 0.04 0.06 0.00 0.00 0.00 0.00 0.00 0.00 0.00 0.00 0.00 0.00 0.00 0.00 0.00 0.00 0.00
0.00 0.00 0.01 0.21 0.08 0.05 0.01 0.00 0.01 0.04 0.04 0.06 0.01 0.00 0.00 0.00 0.01 0.00 0.00 0.00 0.00 0.00 0.00 0.00 0.00 0.00 0.00 0.03 0.02 0.02 0.04 0.02 0.01 0.00 0.02 0.00 0.00 0.01 0.00 0.00 0.00 0.00 0.00 0.00 0.00 0.00 0.00 0.00 0.00
0.00 0.00 0.01 0.01 0.08 0.08 0.05 0.00 0.00 0.06 0.08 0.11 0.03 0.00 0.00 0.00 0.01 0.00 0.00 0.00 0.00 0.00 0.00 0.00 0.00 0.00 0.00 0.04 0.06 0.00 0.00 0.02 0.07 0.08 0.00 0.01 0.00 0.01 0.01 0.00 0.00 0.00 0.00 0.00 0.00 0.00 0.00 0.00 0.00
0.00 0.00 0.00 0.09 0.14 0.19 0.13 0.01 0.00 0.03 0.10 0.15 0.06 0.00 0.00 0.00 0.00 0.00 0.00 0.00 0.00 0.00 0.00 0.00 0.00 0.00 0.00 0.10 0.08 0.00 0.05 0.04 0.02 0.03 0.00 0.00 0.00 0.00 0.01 0.00 0.00 0.00 0.00 0.00 0.00 0.00 0.00 0.00 0.00
0.00 0.00 0.01 0.17 0.22 0.20 0.18 0.04 0.00 0.03 0.08 0.22 0.10 0.00 0.00 0.00 0.00 0.00 0.00 0.00 0.00 0.00 0.00 0.00 0.00 0.00 0.00 0.01 0.02 0.09 0.08 0.03 0.00 0.02 0.02 0.00 0.00 0.00 0.00 0.00 0.00 0.00 0.00 0.00 0.00 0.00 0.00 0.00 0.00
0.00 0.00 0.00 0.04 0.13 0.12 0.23 0.07 0.01 0.02 0.10 0.20 0.15 0.02 0.00 0.00 0.00 0.00 0.00 0.00 0.00 0.00 0.00 0.00 0.00 0.00 0.00 0.00 0.03 0.04 0.13 0.13 0.08 0.08 0.07 0.00 0.00 0.00 0.01 0.00 0.00 0.00 0.00 0.00 0.00 0.00 0.00 0.00 0.00
0.00 0.00 0.00 0.00 0.03 0.16 0.15 0.03 0.00 0.01 0.05 0.22 0.12 0.03 0.00 0.00 0.00 0.00 0.00 0.00 0.00 0.00 0.00 0.00 0.00 0.00 0.00 0.00 0.00 0.00 0.02 0.04 0.01 0.03 0.00 0.00 0.00 0.02 0.04 0.03 0.00 0.00 0.00 0.00 0.01 0.01 0.00 0.00 0.00
0.00 0.00 0.00 0.00 0.00 0.00 0.01 0.01 0.00 0.00 0.01 0.06 0.09 0.04 0.02 0.00 0.01 0.00 0.00 0.00 0.00 0.00 0.00 0.00 0.00 0.00 0.00 0.00 0.00 0.00 0.04 0.02 0.00 0.00 0.00 0.02 0.01 0.01 0.00 0.01 0.00 0.00 0.00 0.00 0.01 0.00 0.00 0.00 0.00
0.00 0.00 0.00 0.00 0.01 0.03 0.01 0.01 0.00 0.00 0.00 0.01 0.11 0.09 0.06 0.04 0.01 0.01 0.00 0.00 0.00 0.00 0.00 0.00 0.00 0.00 0.00 0.00 0.00 0.00 0.00 0.00 0.00 0.00 0.00 0.00 0.00 0.00 0.01 0.00 0.00 0.00 0.00 0.00 0.00 0.00 0.00 0.00 0.00
0.00 0.00 0.00 0.03 0.02 0.05 0.01 0.10 0.02 0.00 0.00 0.03 0.05 0.07 0.09 0.11 0.07 0.04 0.03 0.00 0.00 0.00 0.00 0.00 0.00 0.00 0.00 0.00 0.00 0.00 0.00 0.00 0.00 0.00 0.00 0.00 0.00 0.00 0.00 0.00 0.00 0.00 0.00 0.00 0.00 0.00 0.00 0.00 0.00
0.00 0.00 0.00 0.00 0.00 0.00 0.01 0.08 0.03 0.04 0.00 0.01 0.11 0.36 0.33 0.51 0.16 0.05 0.01 0.03 0.01 0.00 0.00 0.00 0.00 0.00 0.00 0.00 0.00 0.00 0.00 0.00 0.00 0.00 0.00 0.00 0.00 0.01 0.00 0.00 0.00 0.00 0.00 0.00 0.00 0.00 0.00 0.01 0.00
0.00 0.00 0.00 0.00 0.00 0.00 0.10 0.04 0.04 0.03 0.01 0.01 0.09 0.45 0.77 0.80 0.95 0.08 0.08 0.01 0.01 0.01 0.00 0.00 0.00 0.00 0.00 0.00 0.00 0.00 0.00 0.00 0.00 0.00 0.00 0.00 0.00 0.00 0.00 0.00 0.00 0.00 0.00 0.00 0.00 0.00 0.00 0.00 0.00
0.00 0.00 0.00 0.00 0.00 0.00 0.09 0.13 0.10 0.04 0.02 0.01 0.01 0.03 0.23 0.54 1.05 0.26 0.19 0.09 0.09 0.04 0.01 0.01 0.05 0.05 0.08 0.05 0.07 0.03 0.00 0.00 0.00 0.00 0.00 0.00 0.01 0.00 0.00 0.00 0.00 0.00 0.00 0.00 0.00 0.00 0.00 0.00 0.00
0.00 0.00 0.00 0.00 0.00 0.00 0.02 0.06 0.11 0.11 0.01 0.01 0.00 0.00 0.03 0.12 0.36 0.24 0.14 0.20 0.15 0.22 0.16 0.17 0.09 0.03 0.01 0.01 0.03 0.06 0.03 0.01 0.00 0.01 0.01 0.00 0.00 0.00 0.00 0.00 0.00 0.00 0.00 0.00 0.00 0.00 0.00 0.00 0.00
0.00 0.00 0.00 0.00 0.00 0.00 0.01 0.01 0.09 0.18 0.06 0.00 0.00 0.00 0.01 0.03 0.01 0.14 0.16 0.11 0.05 0.48 0.25 0.14 0.23 0.17 0.08 0.06 0.01 0.01 0.05 0.03 0.01 0.00 0.01 0.00 0.00 0.00 0.00 0.00 0.00 0.00 0.00 0.00 0.00 0.00 0.00 0.00 0.00
MSLP
1012.10 1012.27 1012.31 1012.18 1012.91 1011.98 1010.60 1009.12 1008.72 1008.45 1008.59 1008.71 1009.58 1009.91 1010.89 1011.06 1012.32 1014.42 1014.70 1015.35 1015.69 1016.03 1016.30 1016.57 1016.70 1016.79 1016.93 1017.14 1017.31 1017.42 1017.48 1017.62 1017.57 1017.54 1017.54 1017.50 1017.64 1017.68 1017.70 1017.77 1017.80 1017.74 1017.68 1017.68 1017.76 1017.81 1017.88 1017.95 1018.10
1012.23 1012.42 1012.26 1012.79 1012.59 1011.45 1010.11 1008.51 1008.35 1008.28 1008.56 1008.74 1009.88 1009.91 1010.89 1012.35 1012.54 1014.09 1014.99 1015.46 1015.71 1016.19 1016.61 1016.81 1016.93 1017.11 1017.22 1017.37 1017.51 1017.65 1017.81 1017.83 1017.81 1017.78 1017.83 1017.78 1017.83 1017.83 1017.85 1017.90 1017.93 1018.02 1018.06 1018.19 1018.21 1018.21 1018.26 1018.30 1018.51
1011.95 1012.19 1012.36 1012.82 1012.17 1010.88 1009.80 1008.89 1008.22 1008.56 1008.48 1008.77 1009.85 1010.47 1011.48 1012.69 1013.43 1014.15 1014.79 1015.42 1016.00 1016.53 1016.77 1016.89 1017.09 1017.30 1017.40 1017.53 1017.57 1017.72 1017.90 1018.07 1018.09 1018.06 1018.04 1018.01 1018.03 1018.04 1018.12 1018.19 1018.29 1018.25 1018.26 1018.45 1018.57 1018.64 1018.76 1018.64 1018.74
1011.96 1011.36 1013.34 1012.71 1011.82 1010.31 1009.40 1008.83 1007.97 1008.44 1009.09 1008.95 1009.66 1011.29 1012.31 1012.83 1013.31 1014.06 1015.10 1015.51 1016.20 1016.59 1016.80 1017.01 1017.17 1017.37 1017.39 1017.61 1017.69 1017.77 1017.94 1017.99 1018.14 1018.24 1018.17 1018.16 1018.18 1018.31 1018.41 1018.48 1018.58 1018.69 1018.64 1018.72 1018.86 1018.96 1019.03 1019.04 1019.06
1012.33 1011.91 1012.37 1011.92 1011.22 1009.73 1009.04 1008.49 1007.98 1008.56 1009.01 1009.63 1009.54 1011.89 1012.60 1013.43 1013.83 1014.57 1015.24 1015.80 1016.14 1016.73 1016.97 1017.17 1017.27 1017.49 1017.56 1017.73 1017.92 1017.93 1018.05 1018.14 1018.22 1018.29 1018.40 1018.32 1018.28 1018.38 1018.67 1018.80 1018.85 1018.82 1018.79 1018.83 1018.88 1019.05 1019.22 1019.18 1019.14
1012.29 1012.24 1012.00 1011.01 1009.98 1009.29 1008.62 1008.20 1007.99 1008.63 1009.46 1010.08 1010.59 1012.00 1013.28 1013.95 1014.34 1014.88 1015.46 1016.02 1016.25 1016.73 1017.17 1017.36 1017.54 1017.65 1017.79 1017.83 1018.02 1018.22 1018.32 1018.36 1018.46 1018.44 1018.54 1018.69 1018.69 1018.70 1018.83 1018.98 1018.95 1018.93 1018.92 1018.97 1019.00 1019.05 1019.33 1019.38 1019.39
1012.16 1012.43 1012.16 1010.83 1010.03 1009.17 1008.83 1008.41 1008.30 1009.11 1009.89 1010.48 1010.66 1012.22 1013.88 1014.41 1014.65 1015.05 1015.61 1016.40 1016.50 1016.88 1017.18 1017.58 1017.70 1017.78 1017.98 1018.00 1018.11 1018.30 1018.43 1018.62 1018.79 1018.79 1018.88 1018.98 1019.05 1019.09 1019.09 1019.05 1019.07 1019.10 1019.23 1019.33 1019.36 1019.36 1019.43 1019.66 1019.62
1011.17 1012.40 1011.89 1011.43 1010.26 1010.17 1009.50 1009.17 1009.41 1009.38 1010.20 1010.67 1011.08 1012.57 1013.46 1014.31 1015.02 1015.70 1016.14 1016.52 1016.96 1017.19 1017.22 1017.63 1017.85 1018.07 1018.15 1018.21 1018.24 1018.44 1018.56 1018.74 1018.99 1019.10 1019.17 1019.26 1019.25 1019.31 1019.34 1019.26 1019.30 1019.39 1019.43 1019.54 1019.63 1019.64 1019.67 1019.84 1020.01
1011.24 1012.53 1012.26 1011.80 1010.77 1010.91 1010.23 1009.26 1010.47 1010.32 1010.39 1011.05 1011.00 1012.14 1012.92 1014.16 1015.16 1016.00 1016.69 1017.13 1017.43 1017.67 1017.73 1017.70 1017.98 1018.37 1018.49 1018.43 1018.52 1018.66 1018.82 1019.06 1019.24 1019.37 1019.47 1019.58 1019.71 1019.68 1019.69 1019.56 1019.53 1019.58 1019.60 1019.67 1019.70 1019.72 1019.73 1019.79 1020.03
1011.16 1011.99 1011.56 1011.09 1011.09 1010.78 1010.49 1010.28 1010.61 1010.47 1011.11 1011.26 1011.72 1012.76 1013.52 1014.18 1014.96 1015.83 1016.63 1017.10 1017.50 1017.79 1017.90 1017.91 1018.16 1018.45 1018.61 1018.58 1018.86 1018.97 1019.12 1019.34 1019.66 1019.77 1019.93 1020.09 1020.12 1020.08 1019.99 1019.90 1019.84 1019.78 1019.68 1019.75 1019.83 1019.83 1019.88 1020.13 1020.20
1010.66 1010.77 1010.29 1010.14 1010.32 1011.02 1010.34 1010.60 1010.58 1010.78 1011.35 1010.99 1011.50 1012.70 1013.65 1014.44 1015.00 1015.55 1016.47 1016.64 1016.94 1017.31 1017.74 1018.04 1018.27 1018.44 1018.71 1018.94 1019.11 1019.26 1019.34 1019.45 1019.83 1020.01 1020.18 1020.25 1020.36 1020.38 1020.38 1020.23 1020.16 1020.08 1019.97 1020.14 1019.99 1019.85 1019.81 1019.91 1020.31
1009.65 1009.68 1009.82 1009.30 1009.44 1010.38 1010.45 1010.66 1011.09 1011.12 1011.26 1011.24 1011.94 1012.70 1013.54 1014.22 1014.89 1015.31 1015.96 1016.74 1017.02 1017.43 1017.65 1018.01 1018.18 1018.69 1018.92 1019.22 1019.40 1019.52 1019.65 1019.72 1019.92 1020.12 1020.24 1020.31 1020.56 1020.56 1020.40 1020.40 1020.42 1020.45 1020.51 1020.48 1020.23 1020.32 1020.03 1019.78 1019.54
1009.04 1009.22 1009.50 1009.41 1009.91 1010.09 1010.57 1010.95 1011.20 1011.49 1011.29 1011.45 1012.01 1013.02 1013.79 1014.27 1014.90 1015.24 1015.67 1016.53 1016.92 1017.51 1017.89 1018.00 1018.54 1018.80 1019.01 1019.22 1019.53 1019.60 1019.62 1019.82 1019.86 1020.02 1020.17 1020.34 1020.50 1020.50 1020.54 1020.58 1020.40 1020.56 1020.48 1020.51 1020.46 1020.40 1020.28 1019.92 1019.72
1008.07 1008.84 1009.40 1009.72 1010.50 1010.40 1010.83 1011.78 1011.53 1012.46 1011.85 1011.80 1011.83 1012.57 1013.41 1014.07 1014.80 1015.45 1016.00 1016.52 1017.17 1017.24 1017.86 1018.14 1018.43 1018.57 1019.15 1019.37 1019.57 1019.66 1019.62 1019.73 1019.92 1020.01 1020.08 1020.27 1020.41 1020.59 1020.66 1020.77 1020.66 1020.52 1020.38 1020.44 1020.47 1020.47 1020.24 1020.11 1020.14
1008.36 1009.49 1010.04 1010.35 1011.20 1011.26 1011.14 1012.40 1011.85 1012.03 1011.88 1011.55 1011.79 1012.22 1013.15 1014.00 1014.67 1015.13 1015.77 1016.31 1016.72 1017.12 1017.64 1017.98 1018.37 1018.73 1019.09 1019.28 1019.49 1019.72 1019.75 1019.67 1019.95 1020.16 1019.86 1019.93 1020.22 1020.51 1020.47 1020.58 1020.61 1020.80 1020.61 1020.51 1020.54 1020.42 1020.32 1020.16 1020.06
1008.98 1010.29 1010.84 1011.33 1011.97 1011.59 1011.61 1012.60 1012.58 1012.22 1012.18 1012.24 1012.02 1012.19 1012.83 1013.90 1014.58 1015.37 1015.90 1016.36 1016.58 1017.06 1017.61 1017.95 1018.35 1018.84 1019.23 1019.21 1019.47 1019.82 1019.81 1019.85 1020.05 1020.21 1019.89 1020.12 1020.36 1020.48 1020.36 1020.47 1020.74 1020.81 1020.76 1020.85 1020.57 1020.68 1020.66 1020.52 1020.41
1009.16 1010.16 1011.14 1011.77 1011.76 1011.99 1012.30 1012.98 1013.15 1012.80 1012.52 1012.31 1012.39 1012.53 1013.07 1013.96 1014.50 1015.18 1015.77 1016.06 1016.56 1016.83 1017.66 1018.14 1018.49 1018.74 1019.14 1019.33 1019.69 1020.13 1020.01 1020.16 1020.23 1020.02 1019.98 1020.09 1020.18 1020.37 1020.46 1020.74 1020.89 1020.87 1020.76 1020.86 1020.84 1021.12 1020.90 1020.82 1020.69
1009.46 1009.96 1010.14 1010.34 1010.81 1012.03 1012.61 1013.09 1013.41 1013.31 1013.01 1012.95 1012.74 1013.03 1013.36 1013.92 1014.56 1015.04 1015.63 1016.21 1016.48 1016.97 1017.74 1017.99 1018.56 1018.91 1019.23 1019.50 1020.09 1020.24 1020.13 1020.23 1020.18 1020.23 1020.07 1020.20 1020.22 1020.23 1020.49 1020.68 1020.68 1020.65 1020.87 1021.11 1021.29 1021.15 1020.90 1020.83 1020.78
1009.35 1009.77 1009.48 1010.12 1011.10 1012.01 1012.80 1013.47 1013.82 1013.84 1013.83 1013.89 1013.68 1013.74 1013.82 1013.68 1014.15 1014.96 1015.39 1016.09 1016.68 1017.35 1017.73 1018.01 1018.49 1019.02 1019.42 1020.08 1020.47 1020.77 1020.60 1020.53 1020.54 1020.58 1020.14 1020.22 1020.36 1020.44 1020.65 1020.98 1020.78 1020.86 1021.24 1021.37 1021.21 1021.08 1021.13 1020.90 1020.76
1009.13 1009.62 1009.89 1011.04 1011.92 1012.33 1013.33 1014.27 1014.73 1014.50 1014.09 1013.98 1013.99 1014.31 1013.94 1013.80 1014.40 1014.81 1015.49 1016.09 1016.57 1017.13 1017.66 1018.10 1018.31 1018.78 1019.21 1019.51 1019.87 1020.03 1020.37 1020.50 1020.43 1020.45 1020.27 1020.20 1020.35 1020.61 1020.78 1020.96 1020.94 1020.95 1021.35 1021.30 1021.29 1021.25 1021.37 1021.30 1020.93
1008.36 1008.84 1009.54 1010.13 1011.94 1012.85 1013.66 1014.31 1014.81 1015.03 1014.85 1015.08 1014.85 1014.94 1014.46 1013.57 1014.24 1014.88 1015.35 1015.79 1016.13 1016.83 1017.35 1017.93 1018.27 1018.54 1018.96 1019.32 1019.64 1020.00 1020.28 1020.49 1020.69 1020.71 1020.60 1020.38 1020.33 1020.49 1020.71 1020.84 1020.98 1021.07 1021.25 1021.43 1021.55 1021.43 1021.43 1021.58 1021.05
1007.76 1007.47 1008.37 1009.66 1010.89 1013.13 1013.29 1014.03 1014.26 1014.75 1015.04 1015.29 1015.11 1015.15 1014.45 1013.85 1013.87 1014.38 1015.09 1015.63 1015.81 1016.36 1016.72 1017.41 1017.99 1018.51 1018.97 1019.31 1019.61 1019.78 1020.17 1020.69 1020.63 1020.63 1020.61 1020.35 1020.30 1020.34 1020.47 1020.62 1020.90 1021.07 1021.20 1021.52 1021.49 1021.29 1021.49 1021.53 1021.58
1006.58 1006.67 1008.01 1009.71 1011.31 1012.20 1013.49 1013.60 1013.57 1014.09 1014.52 1014.65 1014.85 1014.89 1014.68 1014.59 1013.91 1014.17 1014.70 1015.05 1015.43 1016.04 1016.45 1017.07 1017.66 1018.37 1018.76 1019.17 1019.61 1019.95 1020.21 1020.35 1020.53 1020.53 1020.60 1020.63 1020.60 1020.52 1020.46 1020.53 1020.87 1021.14 1021.20 1021.32 1021.40 1021.51 1021.71 1021.62 1021.75
1006.24 1007.74 1009.38 1010.57 1011.80 1012.92 1012.30 1013.39 1013.73 1013.24 1013.11 1013.88 1014.82 1014.84 1014.94 1015.06 1014.71 1014.98 1014.34 1014.77 1015.33 1016.01 1016.33 1016.89 1017.59 1018.18 1018.55 1018.90 1019.33 1019.77 1020.19 1020.37 1020.52 1020.48 1020.63 1020.83 1020.92 1020.71 1020.64 1020.68 1020.70 1021.00 1021.16 1021.29 1021.34 1021.33 1021.65 1021.67 1021.75
1005.72 1007.67 1009.90 1011.38 1012.10 1012.38 1012.17 1013.07 1012.65 1012.91 1012.82 1013.41 1014.13 1014.34 1014.99 1015.10 1015.33 1015.77 1015.04 1015.02 1015.47 1015.99 1016.28 1016.74 1017.38 1018.12 1018.42 1018.78 1019.20 1019.59 1019.98 1020.22 1020.18 1020.22 1020.53 1020.78 1020.90 1020.88 1020.79 1020.72 1020.86 1021.04 1021.04 1021.19 1021.21 1021.34 1021.56 1021.82 1021.81
1005.26 1006.49 1008.44 1010.15 1011.57 1011.40 1011.39 1012.46 1012.33 1013.01 1013.44 1014.19 1014.87 1015.33 1015.11 1015.30 1015.69 1015.95 1015.51 1015.03 1015.08 1015.60 1016.05 1016.50 1017.20 1017.92 1018.29 1018.66 1019.08 1019.24 1019.52 1019.88 1020.01 1020.18 1020.36 1020.48 1020.52 1020.60 1020.52 1020.67 1020.71 1020.76 1020.89 1021.08 1021.10 1021.30 1021.45 1021.62 1021.81
1004.98 1005.99 1006.83 1008.69 1009.94 1011.08 1012.16 1013.39 1013.53 1013.89 1014.26 1014.79 1015.70 1015.69 1015.93 1016.28 1015.86 1015.85 1015.28 1015.29 1015.60 1016.10 1016.25 1016.35 1017.08 1017.99 1018.54 1018.48 1018.79 1019.23 1019.40 1019.72 1019.69 1020.02 1020.13 1020.19 1020.31 1020.24 1020.20 1020.34 1020.56 1020.61 1020.72 1020.91 1021.10 1021.34 1021.34 1021.44 1021.69
1004.54 1005.67 1007.43 1008.51 1010.14 1011.42 1012.36 1013.20 1013.85 1014.63 1015.33 1015.95 1015.84 1016.05 1016.66 1015.88 1016.25 1016.01 1015.02 1015.95 1016.02 1016.85 1016.89 1016.76 1017.22 1018.28 1018.97 1019.09 1019.31 1019.42 1019.28 1019.35 1019.58 1020.04 1020.26 1020.11 1020.08 1020.13 1020.23 1020.29 1020.41 1020.47 1020.64 1020.87 1021.09 1021.32 1021.25 1021.31 1021.39
1005.75 1006.33 1007.64 1008.99 1009.89 1011.26 1012.62 1013.74 1013.69 1014.46 1015.49 1016.38 1016.55 1016.85 1017.18 1017.35 1016.68 1016.42 1016.69 1016.56 1016.42 1017.30 1017.65 1017.52 1017.68 1018.27 1019.03 1019.20 1019.28 1019.38 1019.51 1019.52 1019.59 1019.84 1019.86 1019.85 1019.95 1020.15 1020.18 1020.11 1020.43 1020.65 1020.85 1020.81 1021.15 1021.28 1021.31 1021.31 1021.25
1005.93 1006.71 1007.80 1009.65 1010.44 1011.61 1012.84 1014.84 1015.04 1015.35 1016.05 1016.45 1017.05 1017.08 1017.15 1017.51 1017.25 1016.76 1016.30 1017.14 1016.96 1017.67 1018.45 1018.34 1018.36 1018.54 1019.09 1019.27 1019.15 1018.92 1018.88 1019.23 1019.28 1019.59 1019.57 1019.46 1019.61 1019.64 1019.91 1020.10 1020.39 1020.69 1020.85 1021.03 1021.10 1021.22 1021.21 1021.19 1021.12
Thickness
5788 5784 5783 5776 5751 5756 5758 5776 5788 5785 5785 5797 5795 5788 5775 5781 5767 5737 5766 5764 5761 5756 5753 5751 5750 5749 5748 5746 5745 5743 5742 5743 5744 5744 5744 5745 5745 5745 5745 5744 5744 5744 5745 5745 5746 5746 5748 5748 5746
5787 5782 5773 5764 5745 5745 5756 5789 5779 5789 5792 5800 5793 5792 5779 5759 5780 5764 5760 5765 5761 5756 5753 5752 5750 5747 5746 5745 5744 5742 5741 5742 5743 5744 5744 5745 5745 5745 5745 5744 5744 5743 5743 5742 5744 5745 5746 5747 5744
5792 5785 5755 5753 5744 5749 5758 5783 5790 5795 5800 5795 5784 5790 5776 5762 5774 5768 5772 5768 5761 5756 5755 5753 5750 5747 5745 5744 5744 5743 5741 5741 5742 5744 5745 5745 5746 5747 5746 5745 5744 5745 5745 5742 5743 5744 5744 5745 5744
5786 5769 5755 5748 5746 5763 5774 5787 5801 5797 5795 5802 5793 5768 5777 5784 5778 5777 5773 5768 5762 5758 5757 5753 5751 5749 5747 5745 5744 5743 5742 5743 5743 5744 5746 5747 5747 5746 5746 5745 5743 5742 5743 5742 5741 5742 5743 5743 5744
5783 5768 5751 5754 5756 5773 5784 5797 5802 5791 5794 5792 5797 5768 5768 5779 5781 5778 5773 5769 5764 5760 5757 5754 5752 5750 5749 5747 5744 5744 5744 5743 5744 5745 5745 5747 5748 5748 5746 5744 5742 5743 5745 5745 5745 5744 5744 5744 5745
5769 5768 5749 5754 5775 5786 5796 5805 5806 5796 5794 5792 5785 5774 5767 5779 5776 5776 5773 5768 5764 5761 5756 5754 5751 5751 5750 5749 5746 5744 5743 5744 5744 5746 5746 5745 5746 5746 5746 5745 5745 5745 5747 5748 5749 5749 5746 5747 5747
5769 5760 5753 5774 5775 5779 5789 5810 5802 5792 5788 5785 5796 5767 5767 5771 5778 5779 5775 5766 5764 5761 5758 5754 5753 5752 5750 5750 5748 5746 5745 5743 5742 5745 5745 5745 5745 5745 5746 5747 5748 5748 5748 5747 5747 5748 5748 5746 5748
5776 5764 5743 5759 5772 5766 5790 5797 5800 5796 5784 5800 5799 5764 5761 5773 5776 5774 5772 5769 5765 5761 5761 5757 5755 5753 5754 5752 5751 5748 5747 5745 5743 5742 5743 5744 5745 5746 5746 5748 5749 5749 5749 5748 5747 5748 5749 5748 5747
5792 5756 5734 5751 5771 5765 5786 5793 5788 5795 5790 5791 5798 5787 5790 5785 5777 5770 5765 5765 5762 5761 5760 5758 5757 5754 5753 5753 5752 5750 5748 5745 5743 5741 5742 5744 5745 5746 5747 5748 5749 5749 5750 5750 5751 5751 5752 5750 5748
5776 5752 5759 5776 5775 5777 5786 5786 5783 5787 5781 5782 5785 5787 5788 5786 5778 5769 5764 5761 5762 5761 5761 5760 5757 5756 5754 5754 5754 5753 5750 5748 5744 5742 5742 5743 5744 5747 5748 5748 5749 5750 5752 5753 5754 5755 5754 5751 5751
5778 5763 5783 5785 5787 5781 5787 5783 5792 5784 5765 5785 5780 5779 5782 5779 5777 5773 5768 5769 5769 5771 5766 5763 5758 5757 5756 5755 5755 5754 5752 5751 5746 5745 5744 5745 5745 5746 5748 5749 5750 5752 5752 5752 5754 5757 5758 5757 5754
5777 5792 5790 5800 5802 5788 5783 5788 5778 5780 5779 5793 5791 5786 5781 5778 5775 5775 5773 5769 5771 5771 5768 5765 5761 5758 5759 5758 5756 5755 5754 5752 5750 5748 5747 5750 5748 5748 5750 5751 5751 5752 5751 5753 5756 5757 5760 5762 5764
5783 5791 5792 5798 5798 5795 5791 5782 5779 5777 5790 5796 5794 5784 5777 5776 5776 5779 5780 5776 5776 5769 5767 5768 5764 5761 5761 5760 5758 5758 5757 5755 5754 5752 5749 5751 5750 5751 5751 5751 5752 5753 5754 5755 5757 5759 5761 5765 5766
5800 5794 5794 5794 5788 5791 5782 5773 5782 5773 5786 5787 5792 5787 5782 5779 5778 5777 5778 5776 5775 5774 5770 5768 5766 5765 5761 5760 5758 5759 5760 5759 5756 5754 5753 5754 5752 5752 5752 5751 5752 5754 5756 5757 5758 5760 5765 5768 5768
5795 5772 5780 5784 5777 5775 5785 5758 5768 5782 5787 5788 5790 5788 5783 5781 5779 5777 5778 5777 5779 5778 5775 5771 5768 5765 5764 5761 5760 5760 5761 5762 5759 5757 5758 5758 5757 5755 5755 5755 5754 5754 5757 5760 5760 5763 5766 5770 5771
5778 5767 5753 5769 5765 5777 5778 5746 5768 5779 5781 5777 5786 5787 5783 5781 5780 5777 5777 5777 5782 5781 5777 5775 5772 5766 5763 5764 5764 5761 5763 5762 5760 5759 5762 5758 5758 5757 5759 5757 5756 5756 5758 5760 5764 5766 5768 5770 5772
5767 5743 5746 5750 5768 5770 5766 5750 5765 5775 5777 5776 5780 5783 5780 5776 5777 5779 5778 5782 5782 5784 5779 5777 5773 5769 5766 5766 5764 5762 5762 5761 5761 5763 5764 5762 5762 5762 5760 5758 5758 5759 5761 5763 5765 5766 5769 5770 5772
5749 5753 5761 5760 5772 5770 5757 5753 5763 5768 5770 5769 5773 5774 5779 5778 5775 5781 5779 5780 5783 5783 5780 5780 5773 5770 5768 5766 5764 5762 5762 5762 5764 5765 5766 5765 5765 5766 5764 5762 5763 5765 5766 5765 5766 5768 5773 5774 5774
5760 5760 5768 5769 5771 5765 5752 5746 5753 5760 5763 5761 5763 5764 5774 5779 5781 5781 5782 5780 5779 5777 5776 5778 5773 5772 5769 5762 5758 5755 5760 5763 5764 5764 5767 5768 5767 5767 5766 5764 5766 5768 5766 5765 5769 5772 5772 5776 5780
5756 5752 5753 5754 5759 5756 5746 5737 5743 5751 5756 5759 5758 5759 5770 5776 5776 5777 5776 5777 5776 5773 5774 5775 5777 5774 5772 5768 5766 5765 5764 5765 5767 5768 5768 5770 5769 5768 5768 5766 5767 5769 5768 5769 5771 5773 5772 5775 5781
5754 5748 5750 5755 5750 5750 5743 5733 5733 5740 5749 5748 5751 5757 5767 5777 5775 5773 5773 5776 5778 5773 5776 5775 5775 5776 5774 5773 5771 5768 5768 5767 5765 5768 5769 5770 5770 5771 5770 5770 5768 5769 5770 5770 5772 5773 5774 5772 5781
5735 5776 5771 5754 5748 5715 5741 5716 5727 5736 5738 5741 5745 5754 5764 5775 5780 5778 5776 5776 5780 5778 5784 5781 5778 5775 5774 5773 5771 5771 5768 5764 5767 5769 5772 5774 5773 5774 5774 5774 5772 5772 5772 5770 5773 5775 5776 5778 5774
5763 5783 5766 5753 5735 5730 5723 5723 5729 5741 5734 5742 5743 5752 5763 5768 5779 5779 5779 5781 5785 5783 5784 5783 5780 5776 5775 5774 5771 5769 5770 5771 5771 5772 5773 5774 5774 5775 5775 5776 5773 5772 5773 5773 5774 5776 5775 5778 5777
5778 5757 5741 5733 5720 5706 5737 5722 5724 5734 5746 5750 5745 5750 5758 5761 5770 5771 5783 5783 5783 5784 5784 5783 5779 5776 5777 5777 5775 5772 5770 5770 5771 5775 5774 5774 5773 5775 5776 5775 5776 5774 5773 5773 5776 5778 5778 5778 5779
5766 5734 5692 5693 5699 5702 5726 5723 5731 5745 5754 5752 5746 5752 5751 5759 5761 5761 5771 5778 5780 5780 5783 5783 5779 5775 5777 5777 5776 5774 5772 5771 5775 5778 5776 5775 5775 5775 5777 5777 5777 5776 5775 5775 5777 5779 5778 5778 5778
5758 5746 5700 5695 5689 5710 5742 5719 5740 5742 5747 5743 5742 5739 5750 5754 5750 5759 5768 5777 5782 5780 5784 5785 5779 5774 5775 5775 5775 5778 5777 5775 5777 5778 5779 5779 5779 5779 5779 5778 5778 5779 5778 5777 5777 5779 5780 5780 5779
5751 5739 5755 5726 5734 5714 5711 5717 5729 5735 5736 5738 5731 5736 5737 5738 5737 5757 5768 5773 5773 5772 5778 5783 5779 5774 5772 5776 5775 5774 5777 5776 5778 5778 5781 5781 5781 5782 5781 5779 5779 5780 5780 5779 5778 5779 5781 5782 5781
5759 5763 5729 5726 5704 5707 5700 5709 5710 5719 5721 5723 5726 5728 5726 5734 5735 5748 5746 5762 5766 5763 5770 5777 5776 5768 5767 5772 5772 5772 5776 5778 5778 5777 5776 5779 5781 5781 5782 5781 5779 5780 5780 5779 5779 5779 5781 5783 5784
5740 5732 5733 5724 5715 5696 5686 5698 5721 5720 5717 5711 5718 5720 5720 5719 5724 5740 5748 5757 5758 5756 5758 5766 5769 5767 5763 5766 5771 5772 5772 5775 5777 5777 5778 5779 5780 5779 5782 5783 5780 5780 5779 5777 5778 5779 5780 5782 5784
5744 5736 5722 5697 5713 5700 5689 5690 5707 5709 5707 5708 5708 5716 5720 5721 5723 5736 5746 5745 5750 5748 5749 5753 5757 5758 5757 5761 5767 5772 5775 5774 5777 5775 5777 5780 5780 5781 5780 5780 5779 5778 5777 5777 5778 5777 5779 5780 5783